Year,Month,Day,Hour,Minute,Value (Times are PST for temperature in C)
2020,04,13,00,00,3.00
2020,04,13,00,01,3.00
2020,04,13,00,02,3.00
2020,04,13,00,03,3.00
2020,04,13,00,04,2.90
2020,04,13,00,05,2.90
2020,04,13,00,06,2.90
2020,04,13,00,07,2.90
2020,04,13,00,08,2.90
2020,04,13,00,09,2.90
2020,04,13,00,10,2.90
2020,04,13,00,11,2.90
2020,04,13,00,12,2.90
2020,04,13,00,13,2.90
2020,04,13,00,14,2.80
2020,04,13,00,15,2.80
2020,04,13,00,16,2.80
2020,04,13,00,17,2.80
2020,04,13,00,18,2.80
2020,04,13,00,19,2.80
2020,04,13,00,20,2.70
2020,04,13,00,21,2.70
2020,04,13,00,22,2.70
2020,04,13,00,23,2.70
2020,04,13,00,24,2.60
2020,04,13,00,25,2.60
2020,04,13,00,26,2.60
2020,04,13,00,27,2.60
2020,04,13,00,28,2.60
2020,04,13,00,29,2.60
2020,04,13,00,30,2.50
2020,04,13,00,31,2.50
2020,04,13,00,32,2.50
2020,04,13,00,33,2.50
2020,04,13,00,34,2.50
2020,04,13,00,35,2.50
2020,04,13,00,36,2.50
2020,04,13,00,37,2.50
2020,04,13,00,38,2.50
2020,04,13,00,39,2.50
2020,04,13,00,40,2.50
2020,04,13,00,41,2.40
2020,04,13,00,42,2.40
2020,04,13,00,43,2.40
2020,04,13,00,44,2.40
2020,04,13,00,45,2.40
2020,04,13,00,46,2.40
2020,04,13,00,47,2.40
2020,04,13,00,48,2.40
2020,04,13,00,49,2.40
2020,04,13,00,50,2.30
2020,04,13,00,51,2.30
2020,04,13,00,52,2.30
2020,04,13,00,53,2.30
2020,04,13,00,54,2.30
2020,04,13,00,55,2.30
2020,04,13,00,56,2.30
2020,04,13,00,57,2.30
2020,04,13,00,58,2.30
2020,04,13,00,59,2.30
2020,04,13,01,00,2.30
2020,04,13,01,01,2.30
2020,04,13,01,02,2.30
2020,04,13,01,03,2.30
2020,04,13,01,04,2.30
2020,04,13,01,05,2.40
2020,04,13,01,06,2.40
2020,04,13,01,07,2.30
2020,04,13,01,08,2.30
2020,04,13,01,09,2.30
2020,04,13,01,10,2.30
2020,04,13,01,11,2.30
2020,04,13,01,12,2.30
2020,04,13,01,13,2.30
2020,04,13,01,14,2.20
2020,04,13,01,15,2.20
2020,04,13,01,16,2.20
2020,04,13,01,17,2.20
2020,04,13,01,18,2.20
2020,04,13,01,19,2.20
2020,04,13,01,20,2.20
2020,04,13,01,21,2.20
2020,04,13,01,22,2.10
2020,04,13,01,23,2.20
2020,04,13,01,24,2.10
2020,04,13,01,25,2.10
2020,04,13,01,26,2.20
2020,04,13,01,27,2.20
2020,04,13,01,28,2.20
2020,04,13,01,29,2.20
2020,04,13,01,30,2.20
2020,04,13,01,31,2.10
2020,04,13,01,32,2.10
2020,04,13,01,33,2.10
2020,04,13,01,34,2.10
2020,04,13,01,35,2.00
2020,04,13,01,36,2.00
2020,04,13,01,37,2.00
2020,04,13,01,38,2.00
2020,04,13,01,39,2.00
2020,04,13,01,40,1.90
2020,04,13,01,41,2.00
2020,04,13,01,42,1.90
2020,04,13,01,43,2.00
2020,04,13,01,44,1.90
2020,04,13,01,45,1.90
2020,04,13,01,46,1.90
2020,04,13,01,47,1.90
2020,04,13,01,48,1.90
2020,04,13,01,49,1.90
2020,04,13,01,50,1.90
2020,04,13,01,51,1.90
2020,04,13,01,52,1.80
2020,04,13,01,53,1.80
2020,04,13,01,54,1.80
2020,04,13,01,55,1.80
2020,04,13,01,56,1.70
2020,04,13,01,57,1.70
2020,04,13,01,58,1.70
2020,04,13,01,59,1.60
2020,04,13,02,00,1.60
2020,04,13,02,01,1.60
2020,04,13,02,02,1.60
2020,04,13,02,03,1.60
2020,04,13,02,04,1.60
2020,04,13,02,05,1.60
2020,04,13,02,06,1.50
2020,04,13,02,07,1.50
2020,04,13,02,08,1.50
2020,04,13,02,09,1.50
2020,04,13,02,10,1.50
2020,04,13,02,11,1.50
2020,04,13,02,12,1.50
2020,04,13,02,13,1.50
2020,04,13,02,14,1.50
2020,04,13,02,15,1.50
2020,04,13,02,16,1.50
2020,04,13,02,17,1.50
2020,04,13,02,18,1.50
2020,04,13,02,19,1.60
2020,04,13,02,20,1.60
2020,04,13,02,21,1.60
2020,04,13,02,22,1.60
2020,04,13,02,23,1.60
2020,04,13,02,24,1.60
2020,04,13,02,25,1.60
2020,04,13,02,26,1.60
2020,04,13,02,27,1.60
2020,04,13,02,28,1.60
2020,04,13,02,29,1.50
2020,04,13,02,30,1.50
2020,04,13,02,31,1.50
2020,04,13,02,32,1.50
2020,04,13,02,33,1.60
2020,04,13,02,34,1.50
2020,04,13,02,35,1.50
2020,04,13,02,36,1.50
2020,04,13,02,37,1.50
2020,04,13,02,38,1.40
2020,04,13,02,39,1.40
2020,04,13,02,40,1.40
2020,04,13,02,41,1.40
2020,04,13,02,42,1.40
2020,04,13,02,43,1.40
2020,04,13,02,44,1.40
2020,04,13,02,45,1.40
2020,04,13,02,46,1.40
2020,04,13,02,47,1.30
2020,04,13,02,48,1.30
2020,04,13,02,49,1.30
2020,04,13,02,50,1.30
2020,04,13,02,51,1.30
2020,04,13,02,52,1.20
2020,04,13,02,53,1.20
2020,04,13,02,54,1.20
2020,04,13,02,55,1.10
2020,04,13,02,56,1.10
2020,04,13,02,57,1.10
2020,04,13,02,58,1.10
2020,04,13,02,59,1.00
2020,04,13,03,00,1.00
2020,04,13,03,01,1.00
2020,04,13,03,02,0.90
2020,04,13,03,03,0.90
2020,04,13,03,04,0.90
2020,04,13,03,05,0.90
2020,04,13,03,06,0.90
2020,04,13,03,07,0.90
2020,04,13,03,08,0.90
2020,04,13,03,09,0.90
2020,04,13,03,10,0.90
2020,04,13,03,11,1.00
2020,04,13,03,12,1.00
2020,04,13,03,13,0.90
2020,04,13,03,14,0.90
2020,04,13,03,15,0.90
2020,04,13,03,16,0.90
2020,04,13,03,17,0.90
2020,04,13,03,18,0.90
2020,04,13,03,19,0.90
2020,04,13,03,20,0.90
2020,04,13,03,21,0.90
2020,04,13,03,22,0.90
2020,04,13,03,23,0.90
2020,04,13,03,24,0.90
2020,04,13,03,25,0.90
2020,04,13,03,26,0.80
2020,04,13,03,27,0.80
2020,04,13,03,28,0.80
2020,04,13,03,29,0.80
2020,04,13,03,30,0.80
2020,04,13,03,31,0.80
2020,04,13,03,32,0.80
2020,04,13,03,33,0.80
2020,04,13,03,34,0.80
2020,04,13,03,35,0.80
2020,04,13,03,36,0.80
2020,04,13,03,37,0.80
2020,04,13,03,38,0.80
2020,04,13,03,39,0.70
2020,04,13,03,40,0.70
2020,04,13,03,41,0.70
2020,04,13,03,42,0.70
2020,04,13,03,43,0.70
2020,04,13,03,44,0.70
2020,04,13,03,45,0.70
2020,04,13,03,46,0.70
2020,04,13,03,47,0.70
2020,04,13,03,48,0.80
2020,04,13,03,49,0.80
2020,04,13,03,50,0.80
2020,04,13,03,51,0.80
2020,04,13,03,52,0.80
2020,04,13,03,53,0.90
2020,04,13,03,54,0.90
2020,04,13,03,55,0.90
2020,04,13,03,56,0.90
2020,04,13,03,57,0.90
2020,04,13,03,58,0.90
2020,04,13,03,59,0.90
2020,04,13,04,00,0.90
2020,04,13,04,01,0.90
2020,04,13,04,02,0.90
2020,04,13,04,03,0.80
2020,04,13,04,04,0.80
2020,04,13,04,05,0.80
2020,04,13,04,06,0.80
2020,04,13,04,07,0.80
2020,04,13,04,08,0.90
2020,04,13,04,09,0.90
2020,04,13,04,10,0.90
2020,04,13,04,11,1.00
2020,04,13,04,12,1.00
2020,04,13,04,13,1.00
2020,04,13,04,14,1.00
2020,04,13,04,15,1.00
2020,04,13,04,16,1.00
2020,04,13,04,17,1.00
2020,04,13,04,18,0.90
2020,04,13,04,19,0.90
2020,04,13,04,20,0.90
2020,04,13,04,21,0.90
2020,04,13,04,22,0.90
2020,04,13,04,23,0.90
2020,04,13,04,24,0.90
2020,04,13,04,25,0.90
2020,04,13,04,26,0.80
2020,04,13,04,27,0.80
2020,04,13,04,28,0.80
2020,04,13,04,29,0.80
2020,04,13,04,30,0.80
2020,04,13,04,31,0.80
2020,04,13,04,32,0.70
2020,04,13,04,33,0.70
2020,04,13,04,34,0.70
2020,04,13,04,35,0.70
2020,04,13,04,36,0.60
2020,04,13,04,37,0.60
2020,04,13,04,38,0.60
2020,04,13,04,39,0.60
2020,04,13,04,40,0.60
2020,04,13,04,41,0.60
2020,04,13,04,42,0.60
2020,04,13,04,43,0.50
2020,04,13,04,44,0.50
2020,04,13,04,45,0.50
2020,04,13,04,46,0.50
2020,04,13,04,47,0.50
2020,04,13,04,48,0.50
2020,04,13,04,49,0.40
2020,04,13,04,50,0.40
2020,04,13,04,51,0.40
2020,04,13,04,52,0.40
2020,04,13,04,53,0.40
2020,04,13,04,54,0.40
2020,04,13,04,55,0.30
2020,04,13,04,56,0.30
2020,04,13,04,57,0.30
2020,04,13,04,58,0.30
2020,04,13,04,59,0.30
2020,04,13,05,00,0.20
2020,04,13,05,01,0.20
2020,04,13,05,02,0.20
2020,04,13,05,03,0.20
2020,04,13,05,04,0.20
2020,04,13,05,05,0.10
2020,04,13,05,06,0.10
2020,04,13,05,07,0.10
2020,04,13,05,08,0.10
2020,04,13,05,09,0.10
2020,04,13,05,10,0.10
2020,04,13,05,11,0.10
2020,04,13,05,12,0.10
2020,04,13,05,13,0.10
2020,04,13,05,14,0.10
2020,04,13,05,15,0.10
2020,04,13,05,16,0.20
2020,04,13,05,17,0.20
2020,04,13,05,18,0.20
2020,04,13,05,19,0.30
2020,04,13,05,20,0.30
2020,04,13,05,21,0.30
2020,04,13,05,22,0.30
2020,04,13,05,23,0.30
2020,04,13,05,24,0.30
2020,04,13,05,25,0.30
2020,04,13,05,26,0.30
2020,04,13,05,27,0.30
2020,04,13,05,28,0.30
2020,04,13,05,29,0.30
2020,04,13,05,30,0.30
2020,04,13,05,31,0.30
2020,04,13,05,32,0.40
2020,04,13,05,33,0.40
2020,04,13,05,34,0.40
2020,04,13,05,35,0.40
2020,04,13,05,36,0.50
2020,04,13,05,37,0.50
2020,04,13,05,38,0.50
2020,04,13,05,39,0.60
2020,04,13,05,40,0.60
2020,04,13,05,41,0.60
2020,04,13,05,42,0.60
2020,04,13,05,43,0.70
2020,04,13,05,44,0.70
2020,04,13,05,45,0.70
2020,04,13,05,46,0.70
2020,04,13,05,47,0.70
2020,04,13,05,48,0.70
2020,04,13,05,49,0.70
2020,04,13,05,50,0.80
2020,04,13,05,51,0.80
2020,04,13,05,52,0.80
2020,04,13,05,53,0.80
2020,04,13,05,54,0.80
2020,04,13,05,55,0.80
2020,04,13,05,56,0.80
2020,04,13,05,57,0.80
2020,04,13,05,58,0.80
2020,04,13,05,59,0.80
2020,04,13,06,00,0.80
2020,04,13,06,01,0.80
2020,04,13,06,02,0.70
2020,04,13,06,03,0.70
2020,04,13,06,04,0.60
2020,04,13,06,05,0.50
2020,04,13,06,06,0.50
2020,04,13,06,07,0.40
2020,04,13,06,08,0.30
2020,04,13,06,09,0.30
2020,04,13,06,10,0.30
2020,04,13,06,11,0.30
2020,04,13,06,12,0.30
2020,04,13,06,13,0.30
2020,04,13,06,14,0.30
2020,04,13,06,15,0.30
2020,04,13,06,16,0.30
2020,04,13,06,17,0.30
2020,04,13,06,18,0.30
2020,04,13,06,19,0.30
2020,04,13,06,20,0.30
2020,04,13,06,21,0.30
2020,04,13,06,22,0.30
2020,04,13,06,23,0.30
2020,04,13,06,24,0.20
2020,04,13,06,25,0.20
2020,04,13,06,26,0.20
2020,04,13,06,27,0.20
2020,04,13,06,28,0.20
2020,04,13,06,29,0.30
2020,04,13,06,30,0.30
2020,04,13,06,31,0.40
2020,04,13,06,32,0.50
2020,04,13,06,33,0.50
2020,04,13,06,34,0.60
2020,04,13,06,35,0.60
2020,04,13,06,36,0.70
2020,04,13,06,37,0.80
2020,04,13,06,38,0.80
2020,04,13,06,39,0.90
2020,04,13,06,40,0.90
2020,04,13,06,41,1.00
2020,04,13,06,42,1.00
2020,04,13,06,43,1.10
2020,04,13,06,44,1.10
2020,04,13,06,45,1.10
2020,04,13,06,46,1.10
2020,04,13,06,47,1.10
2020,04,13,06,48,1.10
2020,04,13,06,49,1.20
2020,04,13,06,50,1.20
2020,04,13,06,51,1.20
2020,04,13,06,52,1.20
2020,04,13,06,53,1.20
2020,04,13,06,54,1.20
2020,04,13,06,55,1.20
2020,04,13,06,56,1.20
2020,04,13,06,57,1.20
2020,04,13,06,58,1.10
2020,04,13,06,59,1.10
2020,04,13,07,00,1.10
2020,04,13,07,01,1.10
2020,04,13,07,02,1.00
2020,04,13,07,03,1.00
2020,04,13,07,04,0.90
2020,04,13,07,05,0.90
2020,04,13,07,06,0.90
2020,04,13,07,07,0.90
2020,04,13,07,08,0.90
2020,04,13,07,09,0.90
2020,04,13,07,10,0.80
2020,04,13,07,11,0.80
2020,04,13,07,12,0.80
2020,04,13,07,13,0.80
2020,04,13,07,14,0.80
2020,04,13,07,15,0.80
2020,04,13,07,16,0.80
2020,04,13,07,17,0.80
2020,04,13,07,18,0.80
2020,04,13,07,19,0.80
2020,04,13,07,20,0.80
2020,04,13,07,21,0.80
2020,04,13,07,22,0.90
2020,04,13,07,23,0.90
2020,04,13,07,24,0.90
2020,04,13,07,25,1.00
2020,04,13,07,26,1.00
2020,04,13,07,27,1.00
2020,04,13,07,28,1.10
2020,04,13,07,29,1.10
2020,04,13,07,30,1.10
2020,04,13,07,31,1.20
2020,04,13,07,32,1.20
2020,04,13,07,33,1.30
2020,04,13,07,34,1.30
2020,04,13,07,35,1.40
2020,04,13,07,36,1.40
2020,04,13,07,37,1.40
2020,04,13,07,38,1.40
2020,04,13,07,39,1.50
2020,04,13,07,40,1.50
2020,04,13,07,41,1.60
2020,04,13,07,42,1.70
2020,04,13,07,43,1.80
2020,04,13,07,44,1.90
2020,04,13,07,45,2.00
2020,04,13,07,46,2.10
2020,04,13,07,47,2.20
2020,04,13,07,48,2.30
2020,04,13,07,49,2.30
2020,04,13,07,50,2.40
2020,04,13,07,51,2.50
2020,04,13,07,52,2.60
2020,04,13,07,53,2.70
2020,04,13,07,54,2.80
2020,04,13,07,55,2.90
2020,04,13,07,56,3.10
2020,04,13,07,57,3.20
2020,04,13,07,58,3.30
2020,04,13,07,59,3.40
2020,04,13,08,00,3.40
2020,04,13,08,01,3.50
2020,04,13,08,02,3.60
2020,04,13,08,03,3.60
2020,04,13,08,04,3.70
2020,04,13,08,05,3.80
2020,04,13,08,06,3.90
2020,04,13,08,07,4.00
2020,04,13,08,08,4.20
2020,04,13,08,09,4.30
2020,04,13,08,10,4.40
2020,04,13,08,11,4.50
2020,04,13,08,12,4.50
2020,04,13,08,13,4.60
2020,04,13,08,14,4.70
2020,04,13,08,15,4.80
2020,04,13,08,16,4.90
2020,04,13,08,17,5.00
2020,04,13,08,18,5.10
2020,04,13,08,19,5.20
2020,04,13,08,20,5.30
2020,04,13,08,21,5.40
2020,04,13,08,22,5.50
2020,04,13,08,23,5.60
2020,04,13,08,24,5.70
2020,04,13,08,25,5.80
2020,04,13,08,26,5.90
2020,04,13,08,27,6.00
2020,04,13,08,28,6.00
2020,04,13,08,29,6.10
2020,04,13,08,30,6.20
2020,04,13,08,31,6.20
2020,04,13,08,32,6.20
2020,04,13,08,33,6.20
2020,04,13,08,34,6.20
2020,04,13,08,35,6.20
2020,04,13,08,36,6.20
2020,04,13,08,37,6.20
2020,04,13,08,38,6.30
2020,04,13,08,39,6.30
2020,04,13,08,40,6.30
2020,04,13,08,41,6.30
2020,04,13,08,42,6.20
2020,04,13,08,43,6.20
2020,04,13,08,44,6.20
2020,04,13,08,45,6.20
2020,04,13,08,46,6.20
2020,04,13,08,47,6.20
2020,04,13,08,48,6.10
2020,04,13,08,49,6.10
2020,04,13,08,50,6.10
2020,04,13,08,51,6.10
2020,04,13,08,52,6.10
2020,04,13,08,53,6.10
2020,04,13,08,54,6.10
2020,04,13,08,55,6.10
2020,04,13,08,56,6.10
2020,04,13,08,57,6.10
2020,04,13,08,58,6.10
2020,04,13,08,59,6.10
2020,04,13,09,00,6.10
2020,04,13,09,01,6.10
2020,04,13,09,02,6.10
2020,04,13,09,03,6.10
2020,04,13,09,04,6.10
2020,04,13,09,05,6.20
2020,04,13,09,06,6.20
2020,04,13,09,07,6.20
2020,04,13,09,08,6.20
2020,04,13,09,09,6.30
2020,04,13,09,10,6.30
2020,04,13,09,11,6.30
2020,04,13,09,12,6.30
2020,04,13,09,13,6.30
2020,04,13,09,14,6.40
2020,04,13,09,15,6.50
2020,04,13,09,16,6.60
2020,04,13,09,17,6.70
2020,04,13,09,18,6.70
2020,04,13,09,19,6.80
2020,04,13,09,20,7.00
2020,04,13,09,21,7.00
2020,04,13,09,22,7.10
2020,04,13,09,23,7.30
2020,04,13,09,24,7.30
2020,04,13,09,25,7.40
2020,04,13,09,26,7.40
2020,04,13,09,27,7.40
2020,04,13,09,28,7.60
2020,04,13,09,29,7.60
2020,04,13,09,30,7.70
2020,04,13,09,31,7.80
2020,04,13,09,32,7.90
2020,04,13,09,33,8.00
2020,04,13,09,34,8.10
2020,04,13,09,35,8.20
2020,04,13,09,36,8.30
2020,04,13,09,37,8.30
2020,04,13,09,38,8.40
2020,04,13,09,39,8.40
2020,04,13,09,40,8.50
2020,04,13,09,41,8.60
2020,04,13,09,42,8.70
2020,04,13,09,43,8.80
2020,04,13,09,44,8.80
2020,04,13,09,45,8.90
2020,04,13,09,46,9.00
2020,04,13,09,47,9.00
2020,04,13,09,48,9.10
2020,04,13,09,49,9.20
2020,04,13,09,50,9.30
2020,04,13,09,51,9.40
2020,04,13,09,52,9.60
2020,04,13,09,53,9.70
2020,04,13,09,54,9.80
2020,04,13,09,55,9.90
2020,04,13,09,56,9.90
2020,04,13,09,57,10.00
2020,04,13,09,58,10.00
2020,04,13,09,59,10.10
2020,04,13,10,00,10.20
2020,04,13,10,01,10.30
2020,04,13,10,02,10.30
2020,04,13,10,03,10.40
2020,04,13,10,04,10.50
2020,04,13,10,05,10.60
2020,04,13,10,06,10.70
2020,04,13,10,07,10.80
2020,04,13,10,08,10.80
2020,04,13,10,09,10.90
2020,04,13,10,10,10.90
2020,04,13,10,11,10.90
2020,04,13,10,12,11.00
2020,04,13,10,13,11.00
2020,04,13,10,14,11.10
2020,04,13,10,15,11.20
2020,04,13,10,16,11.30
2020,04,13,10,17,11.40
2020,04,13,10,18,11.40
2020,04,13,10,19,11.50
2020,04,13,10,20,11.60
2020,04,13,10,21,11.70
2020,04,13,10,22,11.80
2020,04,13,10,23,11.90
2020,04,13,10,24,12.00
2020,04,13,10,25,12.00
2020,04,13,10,26,12.10
2020,04,13,10,27,12.10
2020,04,13,10,28,12.10
2020,04,13,10,29,12.10
2020,04,13,10,30,12.20
2020,04,13,10,31,12.20
2020,04,13,10,32,12.20
2020,04,13,10,33,12.20
2020,04,13,10,34,12.20
2020,04,13,10,35,12.20
2020,04,13,10,36,12.30
2020,04,13,10,37,12.40
2020,04,13,10,38,12.40
2020,04,13,10,39,12.30
2020,04,13,10,40,12.40
2020,04,13,10,41,12.50
2020,04,13,10,42,12.60
2020,04,13,10,43,12.70
2020,04,13,10,44,12.80
2020,04,13,10,45,12.90
2020,04,13,10,46,12.90
2020,04,13,10,47,12.90
2020,04,13,10,48,12.90
2020,04,13,10,49,12.90
2020,04,13,10,50,12.80
2020,04,13,10,51,12.80
2020,04,13,10,52,12.80
2020,04,13,10,53,12.80
2020,04,13,10,54,12.80
2020,04,13,10,55,12.80
2020,04,13,10,56,12.90
2020,04,13,10,57,12.90
2020,04,13,10,58,13.00
2020,04,13,10,59,13.20
2020,04,13,11,00,13.30
2020,04,13,11,01,13.40
2020,04,13,11,02,13.50
2020,04,13,11,03,13.70
2020,04,13,11,04,13.70
2020,04,13,11,05,13.70
2020,04,13,11,06,13.70
2020,04,13,11,07,13.70
2020,04,13,11,08,13.70
2020,04,13,11,09,13.80
2020,04,13,11,10,13.80
2020,04,13,11,11,13.90
2020,04,13,11,12,14.00
2020,04,13,11,13,14.10
2020,04,13,11,14,14.10
2020,04,13,11,15,14.10
2020,04,13,11,16,14.10
2020,04,13,11,17,14.20
2020,04,13,11,18,14.30
2020,04,13,11,19,14.40
2020,04,13,11,20,14.40
2020,04,13,11,21,14.50
2020,04,13,11,22,14.60
2020,04,13,11,23,14.60
2020,04,13,11,24,14.60
2020,04,13,11,25,14.60
2020,04,13,11,26,14.70
2020,04,13,11,27,14.70
2020,04,13,11,28,14.70
2020,04,13,11,29,14.60
2020,04,13,11,30,14.60
2020,04,13,11,31,14.50
2020,04,13,11,32,14.50
2020,04,13,11,33,14.50
2020,04,13,11,34,14.50
2020,04,13,11,35,14.50
2020,04,13,11,36,14.40
2020,04,13,11,37,14.40
2020,04,13,11,38,14.40
2020,04,13,11,39,14.40
2020,04,13,11,40,14.40
2020,04,13,11,41,14.40
2020,04,13,11,42,14.40
2020,04,13,11,43,14.40
2020,04,13,11,44,14.50
2020,04,13,11,45,14.60
2020,04,13,11,46,14.60
2020,04,13,11,47,14.60
2020,04,13,11,48,14.60
2020,04,13,11,49,14.60
2020,04,13,11,50,14.50
2020,04,13,11,51,14.50
2020,04,13,11,52,14.60
2020,04,13,11,53,14.70
2020,04,13,11,54,14.70
2020,04,13,11,55,14.80
2020,04,13,11,56,14.80
2020,04,13,11,57,14.70
2020,04,13,11,58,14.80
2020,04,13,11,59,14.90
2020,04,13,12,00,14.90
2020,04,13,12,01,15.00
2020,04,13,12,02,15.10
2020,04,13,12,03,15.10
2020,04,13,12,04,15.20
2020,04,13,12,05,15.30
2020,04,13,12,06,15.40
2020,04,13,12,07,15.20
2020,04,13,12,08,15.10
2020,04,13,12,09,15.10
2020,04,13,12,10,15.10
2020,04,13,12,11,15.10
2020,04,13,12,12,15.20
2020,04,13,12,13,15.30
2020,04,13,12,14,15.40
2020,04,13,12,15,15.40
2020,04,13,12,16,15.50
2020,04,13,12,17,15.50
2020,04,13,12,18,15.50
2020,04,13,12,19,15.60
2020,04,13,12,20,15.60
2020,04,13,12,21,15.60
2020,04,13,12,22,15.40
2020,04,13,12,23,15.20
2020,04,13,12,24,15.20
2020,04,13,12,25,15.10
2020,04,13,12,26,15.10
2020,04,13,12,27,15.10
2020,04,13,12,28,15.20
2020,04,13,12,29,15.20
2020,04,13,12,30,15.20
2020,04,13,12,31,15.30
2020,04,13,12,32,15.40
2020,04,13,12,33,15.40
2020,04,13,12,34,15.40
2020,04,13,12,35,15.30
2020,04,13,12,36,15.30
2020,04,13,12,37,15.20
2020,04,13,12,38,15.20
2020,04,13,12,39,15.30
2020,04,13,12,40,15.40
2020,04,13,12,41,15.50
2020,04,13,12,42,15.50
2020,04,13,12,43,15.50
2020,04,13,12,44,15.40
2020,04,13,12,45,15.40
2020,04,13,12,46,15.40
2020,04,13,12,47,15.30
2020,04,13,12,48,15.40
2020,04,13,12,49,15.40
2020,04,13,12,50,15.30
2020,04,13,12,51,15.30
2020,04,13,12,52,15.20
2020,04,13,12,53,15.30
2020,04,13,12,54,15.30
2020,04,13,12,55,15.30
2020,04,13,12,56,15.40
2020,04,13,12,57,15.40
2020,04,13,12,58,15.50
2020,04,13,12,59,15.60
2020,04,13,13,00,15.70
2020,04,13,13,01,15.70
2020,04,13,13,02,15.80
2020,04,13,13,03,15.90
2020,04,13,13,04,15.90
2020,04,13,13,05,15.90
2020,04,13,13,06,15.90
2020,04,13,13,07,15.80
2020,04,13,13,08,15.80
2020,04,13,13,09,15.90
2020,04,13,13,10,16.00
2020,04,13,13,11,16.10
2020,04,13,13,12,16.20
2020,04,13,13,13,16.30
2020,04,13,13,14,16.20
2020,04,13,13,15,16.10
2020,04,13,13,16,16.10
2020,04,13,13,17,16.10
2020,04,13,13,18,16.10
2020,04,13,13,19,16.10
2020,04,13,13,20,16.10
2020,04,13,13,21,16.00
2020,04,13,13,22,16.00
2020,04,13,13,23,15.90
2020,04,13,13,24,16.00
2020,04,13,13,25,16.00
2020,04,13,13,26,16.10
2020,04,13,13,27,16.20
2020,04,13,13,28,16.30
2020,04,13,13,29,16.30
2020,04,13,13,30,16.30
2020,04,13,13,31,16.30
2020,04,13,13,32,16.20
2020,04,13,13,33,16.20
2020,04,13,13,34,16.10
2020,04,13,13,35,16.10
2020,04,13,13,36,16.20
2020,04,13,13,37,16.20
2020,04,13,13,38,16.30
2020,04,13,13,39,16.30
2020,04,13,13,40,16.30
2020,04,13,13,41,16.20
2020,04,13,13,42,16.20
2020,04,13,13,43,16.30
2020,04,13,13,44,16.30
2020,04,13,13,45,16.40
2020,04,13,13,46,16.50
2020,04,13,13,47,16.60
2020,04,13,13,48,16.70
2020,04,13,13,49,16.70
2020,04,13,13,50,16.70
2020,04,13,13,51,16.70
2020,04,13,13,52,16.50
2020,04,13,13,53,16.30
2020,04,13,13,54,16.10
2020,04,13,13,55,16.10
2020,04,13,13,56,16.10
2020,04,13,13,57,16.20
2020,04,13,13,58,16.20
2020,04,13,13,59,16.20
2020,04,13,14,00,16.30
2020,04,13,14,01,16.40
2020,04,13,14,02,16.50
2020,04,13,14,03,16.70
2020,04,13,14,04,16.80
2020,04,13,14,05,16.80
2020,04,13,14,06,16.80
2020,04,13,14,07,16.80
2020,04,13,14,08,16.70
2020,04,13,14,09,16.70
2020,04,13,14,10,16.50
2020,04,13,14,11,16.50
2020,04,13,14,12,16.40
2020,04,13,14,13,16.40
2020,04,13,14,14,16.40
2020,04,13,14,15,16.30
2020,04,13,14,16,16.30
2020,04,13,14,17,16.40
2020,04,13,14,18,16.50
2020,04,13,14,19,16.60
2020,04,13,14,20,16.60
2020,04,13,14,21,16.70
2020,04,13,14,22,16.70
2020,04,13,14,23,16.70
2020,04,13,14,24,16.70
2020,04,13,14,25,16.60
2020,04,13,14,26,16.50
2020,04,13,14,27,16.40
2020,04,13,14,28,16.40
2020,04,13,14,29,16.40
2020,04,13,14,30,16.50
2020,04,13,14,31,16.50
2020,04,13,14,32,16.50
2020,04,13,14,33,16.50
2020,04,13,14,34,16.60
2020,04,13,14,35,16.60
2020,04,13,14,36,16.60
2020,04,13,14,37,16.60
2020,04,13,14,38,16.60
2020,04,13,14,39,16.70
2020,04,13,14,40,16.70
2020,04,13,14,41,16.80
2020,04,13,14,42,16.90
2020,04,13,14,43,16.90
2020,04,13,14,44,16.80
2020,04,13,14,45,16.60
2020,04,13,14,46,16.60
2020,04,13,14,47,16.60
2020,04,13,14,48,16.60
2020,04,13,14,49,16.70
2020,04,13,14,50,16.80
2020,04,13,14,51,16.80
2020,04,13,14,52,16.80
2020,04,13,14,53,16.90
2020,04,13,14,54,16.90
2020,04,13,14,55,16.90
2020,04,13,14,56,17.00
2020,04,13,14,57,17.10
2020,04,13,14,58,17.10
2020,04,13,14,59,17.00
2020,04,13,15,00,16.90
2020,04,13,15,01,17.00
2020,04,13,15,02,17.10
2020,04,13,15,03,17.10
2020,04,13,15,04,17.00
2020,04,13,15,05,16.90
2020,04,13,15,06,16.90
2020,04,13,15,07,16.90
2020,04,13,15,08,16.90
2020,04,13,15,09,16.90
2020,04,13,15,10,16.90
2020,04,13,15,11,16.90
2020,04,13,15,12,16.80
2020,04,13,15,13,16.80
2020,04,13,15,14,16.90
2020,04,13,15,15,16.90
2020,04,13,15,16,16.80
2020,04,13,15,17,16.80
2020,04,13,15,18,16.90
2020,04,13,15,19,16.90
2020,04,13,15,20,16.90
2020,04,13,15,21,17.00
2020,04,13,15,22,17.10
2020,04,13,15,23,17.20
2020,04,13,15,24,17.30
2020,04,13,15,25,17.30
2020,04,13,15,26,17.30
2020,04,13,15,27,17.20
2020,04,13,15,28,17.20
2020,04,13,15,29,17.20
2020,04,13,15,30,17.20
2020,04,13,15,31,17.20
2020,04,13,15,32,17.20
2020,04,13,15,33,17.10
2020,04,13,15,34,17.00
2020,04,13,15,35,16.90
2020,04,13,15,36,16.90
2020,04,13,15,37,16.90
2020,04,13,15,38,16.90
2020,04,13,15,39,16.80
2020,04,13,15,40,16.80
2020,04,13,15,41,16.80
2020,04,13,15,42,16.80
2020,04,13,15,43,16.70
2020,04,13,15,44,16.70
2020,04,13,15,45,16.70
2020,04,13,15,46,16.80
2020,04,13,15,47,16.80
2020,04,13,15,48,16.70
2020,04,13,15,49,16.60
2020,04,13,15,50,16.50
2020,04,13,15,51,16.50
2020,04,13,15,52,16.50
2020,04,13,15,53,16.50
2020,04,13,15,54,16.50
2020,04,13,15,55,16.60
2020,04,13,15,56,16.60
2020,04,13,15,57,16.60
2020,04,13,15,58,16.60
2020,04,13,15,59,16.60
2020,04,13,16,00,16.60
2020,04,13,16,01,16.60
2020,04,13,16,02,16.50
2020,04,13,16,03,16.50
2020,04,13,16,04,16.50
2020,04,13,16,05,16.50
2020,04,13,16,06,16.60
2020,04,13,16,07,16.70
2020,04,13,16,08,16.60
2020,04,13,16,09,16.50
2020,04,13,16,10,16.50
2020,04,13,16,11,16.40
2020,04,13,16,12,16.40
2020,04,13,16,13,16.50
2020,04,13,16,14,16.50
2020,04,13,16,15,16.50
2020,04,13,16,16,16.50
2020,04,13,16,17,16.60
2020,04,13,16,18,16.70
2020,04,13,16,19,16.80
2020,04,13,16,20,16.80
2020,04,13,16,21,16.90
2020,04,13,16,22,16.90
2020,04,13,16,23,16.90
2020,04,13,16,24,16.90
2020,04,13,16,25,16.90
2020,04,13,16,26,16.90
2020,04,13,16,27,16.80
2020,04,13,16,28,16.80
2020,04,13,16,29,16.80
2020,04,13,16,30,16.80
2020,04,13,16,31,16.60
2020,04,13,16,32,16.50
2020,04,13,16,33,16.50
2020,04,13,16,34,16.50
2020,04,13,16,35,16.40
2020,04,13,16,36,16.50
2020,04,13,16,37,16.40
2020,04,13,16,38,16.40
2020,04,13,16,39,16.40
2020,04,13,16,40,16.30
2020,04,13,16,41,16.40
2020,04,13,16,42,16.40
2020,04,13,16,43,16.50
2020,04,13,16,44,16.60
2020,04,13,16,45,16.60
2020,04,13,16,46,16.60
2020,04,13,16,47,16.70
2020,04,13,16,48,16.70
2020,04,13,16,49,16.90
2020,04,13,16,50,16.90
2020,04,13,16,51,16.90
2020,04,13,16,52,17.00
2020,04,13,16,53,17.00
2020,04,13,16,54,17.10
2020,04,13,16,55,17.10
2020,04,13,16,56,16.90
2020,04,13,16,57,16.80
2020,04,13,16,58,16.70
2020,04,13,16,59,16.70
2020,04,13,17,00,16.70
2020,04,13,17,01,16.70
2020,04,13,17,02,16.60
2020,04,13,17,03,16.60
2020,04,13,17,04,16.60
2020,04,13,17,05,16.70
2020,04,13,17,06,16.70
2020,04,13,17,07,16.70
2020,04,13,17,08,16.80
2020,04,13,17,09,16.80
2020,04,13,17,10,16.70
2020,04,13,17,11,16.70
2020,04,13,17,12,16.60
2020,04,13,17,13,16.50
2020,04,13,17,14,16.40
2020,04,13,17,15,16.30
2020,04,13,17,16,16.30
2020,04,13,17,17,16.10
2020,04,13,17,18,16.10
2020,04,13,17,19,16.00
2020,04,13,17,20,16.00
2020,04,13,17,21,15.90
2020,04,13,17,22,15.90
2020,04,13,17,23,15.90
2020,04,13,17,24,15.90
2020,04,13,17,25,15.90
2020,04,13,17,26,15.90
2020,04,13,17,27,16.00
2020,04,13,17,28,16.00
2020,04,13,17,29,16.00
2020,04,13,17,30,16.00
2020,04,13,17,31,16.00
2020,04,13,17,32,15.90
2020,04,13,17,33,15.90
2020,04,13,17,34,15.80
2020,04,13,17,35,15.70
2020,04,13,17,36,15.70
2020,04,13,17,37,15.70
2020,04,13,17,38,15.60
2020,04,13,17,39,15.50
2020,04,13,17,40,15.50
2020,04,13,17,41,15.40
2020,04,13,17,42,15.30
2020,04,13,17,43,15.20
2020,04,13,17,44,15.10
2020,04,13,17,45,15.10